Dewpoint
56 56 55 55 55 55 56 54 57 56 56 54 53 53 54 54 53 53 54 54 54 53 53 53 53 52 51 50 50 50 51 51 50 51 51 52 52 51 52 49 48 48
57 57 56 57 56 56 56 55 54 56 54 52 53 53 53 53 54 51 50 51 52 53 54 54 53 51 51 51 52 51 51 50 51 55 51 51 51 51 50 50 50 50
57 56 56 56 55 55 56 54 56 56 54 53 52 52 53 51 50 51 53 52 52 51 50 50 50 50 50 50 49 49 49 50 50 51 52 50 51 50 50 48 48 49
57 56 56 56 55 55 55 56 57 56 54 52 51 52 51 52 53 53 53 56 51 49 50 51 52 51 50 50 49 49 49 50 51 51 50 50 51 51 51 52 51 51
57 55 57 56 56 55 55 55 55 53 52 52 52 51 52 53 53 51 51 51 52 52 52 52 52 51 51 51 51 50 51 52 52 51 50 50 50 49 49 49 48 48
57 55 57 55 55 54 54 54 55 54 53 52 51 52 52 53 51 51 52 52 52 51 51 51 51 49 48 49 51 50 49 48 49 51 50 49 49 49 49 48 49 49
58 55 55 55 54 54 53 54 55 54 53 52 53 52 52 52 52 53 52 52 51 52 51 52 51 50 51 52 52 49 49 49 49 44 45 47 47 47 49 49 47 46
58 56 55 55 54 54 54 54 54 54 54 52 52 52 51 52 52 52 52 52 50 51 52 53 52 52 52 50 51 51 50 52 48 46 49 46 45 46 48 48 47 47
58 57 56 55 54 55 55 55 55 54 52 51 54 52 51 52 52 52 52 51 51 52 51 52 52 52 52 50 50 50 51 50 49 48 47 46 45 46 46 47 48 49
58 58 56 54 54 55 55 55 55 54 53 52 54 52 51 53 52 52 52 51 51 51 51 51 52 53 52 50 50 51 51 52 51 49 49 49 48 47 48 49 47 47
58 59 57 54 54 54 53 54 54 54 54 51 54 51 50 54 51 51 51 51 51 50 50 51 52 53 52 50 51 52 52 51 51 50 52 52 52 52 54 50 49 46
57 57 57 57 56 54 52 52 53 53 54 54 56 49 50 53 49 50 50 51 51 50 50 51 51 51 52 52 53 53 53 52 52 52 52 53 53 52 53 53 53 52
57 57 57 57 57 58 55 54 53 54 53 54 55 52 52 53 49 49 51 50 50 50 50 51 50 50 51 52 53 53 54 53 54 53 54 54 53 53 53 53 53 54
56 57 57 57 57 57 57 56 56 57 54 52 54 52 53 53 50 49 52 51 49 48 50 50 51 52 54 55 54 55 55 54 55 55 53 54 55 55 56 55 54 54
57 58 57 56 56 57 56 56 56 56 56 56 57 56 57 57 56 56 55 51 51 55 55 54 54 54 54 54 54 55 54 55 55 55 54 54 54 54 54 55 54 54
57 57 58 57 57 56 56 56 56 57 56 56 57 57 56 57 57 57 57 57 56 54 54 55 55 55 54 51 52 54 55 55 56 54 54 54 54 53 53 54 54 54
57 58 58 58 57 57 57 57 56 56 56 56 56 56 55 55 55 56 56 56 55 54 54 54 55 55 47 43 44 49 56 56 55 54 54 54 54 53 53 53 54 54
57 57 57 58 58 58 57 57 57 56 56 56 56 56 56 55 54 54 55 54 55 55 54 54 54 53 46 44 43 45 51 55 55 55 55 54 54 54 54 54 54 53
57 57 57 57 57 57 57 57 56 56 55 56 56 56 56 55 54 54 53 54 55 54 54 54 54 51 45 44 42 41 44 53 55 55 55 54 54 54 54 54 54 53
54 54 55 55 56 56 56 56 55 55 55 55 55 54 54 54 54 53 53 54 54 55 54 54 55 52 45 42 41 40 42 48 55 55 54 54 54 54 54 54 54 54
43 45 49 50 54 54 55 54 54 54 54 53 53 53 53 52 52 52 52 53 53 54 54 54 55 51 45 42 41 40 40 44 54 55 54 54 54 54 54 54 54 55
39 41 42 43 44 45 47 52 53 54 54 54 53 53 52 52 52 52 51 52 52 52 52 53 54 46 41 41 41 40 40 49 53 54 54 54 53 53 53 52 53 53
36 40 42 42 44 44 44 45 47 51 53 54 53 53 52 52 53 53 52 51 50 51 51 51 54 47 39 40 40 39 44 51 52 53 54 53 53 52 51 50 50 52
35 39 40 41 41 43 44 44 44 44 47 52 52 52 53 53 54 53 53 52 51 52 53 52 53 49 40 40 40 40 46 52 52 53 52 53 51 49 46 44 45 49
37 38 39 39 39 41 42 41 42 42 43 45 45 47 51 53 53 53 53 53 52 52 53 53 53 51 42 41 40 40 45 51 52 53 53 50 47 45 43 42 41 43
38 39 39 39 38 38 38 39 40 40 41 42 44 45 44 45 48 52 53 53 53 52 52 52 52 51 45 40 41 40 42 50 53 52 51 48 46 44 42 40 40 40